Location: Dittelbrunn
(50.0738°N, 10.2196°E)
Time: 03:40:29
(UTC+00:00)

Cosmos 494 Rocket - Pass Details

Date: 18 September 2020
Orbit: 741 x 771 km, 74.1° (Epoch: 18 October)

Event Time Altitude Azimuth Distance (km) Brightness Sun altitude
Rises 19:56:32 0° 333° (NNW) 3,245 8.2 -23.6°
Reaches altitude 10° 19:58:57 10° 330° (NNW) 2,318 7.4 -23.9°
Maximum altitude 20:04:06 58° 252° (WSW) 901 4.4 -24.6°
Enters shadow 20:05:36 42° 198° (SSW) 1,097 4.6 -24.8°
